Weather History for Fremont, MI

Change the Weather History Date:

Sunday, October 27, 2013

  Actual Average (KMKG) Record (KMKG)
Temperature  
Mean Temperature 40 °F 47 °F  
Max Temperature 50 °F 55 °F 74 °F (1971)
Min Temperature 29 °F 40 °F 22 °F (1976)
Degree Days  
Heating Degree Days 26 18  
Month to date heating degree days 375  
Since 1 July heating degree days 548  
Cooling Degree Days 0 0  
Month to date cooling degree days 2  
Year to date cooling degree days 563  
Moisture  
Dew Point 31 °F    
Average Humidity 73    
Maximum Humidity 99    
Minimum Humidity 45    
Precipitation  
Precipitation 0.00 in 0.10 in 0.90 in (1906)
Month to date precipitation 2.69  
Year to date precipitation 27.16  
Snow  
Snow 0.00 in 0.00 in 4.70 in (1967)
Month to date snowfall 0.1  
Since 1 July snowfall 0.1  
Since 1 September snowfall 0.1  
Snow Depth -    
Sea Level Pressure  
Sea Level Pressure 29.98 in    
Wind  
Wind Speed 5 mph (SSW)    
Max Wind Speed 20 mph    
Max Gust Speed 26 mph    
Visibility 10 miles    
Events      
T = Trace of Precipitation, MM = Missing Value Source: NWS Daily Summary

Daily Weather History Graph

Daily Weather History Graph

Search for Another Location

Airport:

Trip Planner

Search our weather history database for the weather conditions in past years. The results will help you decide how hot, cold, wet, or windy it might be!

Date:

Astronomy

Oct. 27, 2013 Rise Set
Actual Time 8:13 AM EDT 6:41 PM EDT
Civil Twilight 7:43 AM EDT 7:11 PM EDT
Nautical Twilight 7:10 AM EDT 7:44 PM EDT
Astronomical Twilight 6:37 AM EDT 8:17 PM EDT
Moon 12:58 AM EDT (10/27) 3:01 PM EDT (10/27)
Length of Visible Light 11h 27m
Length of Day
10h 28m
Last Quarter, 44% of the Moon is Illuminated
Oct 27
Last Quarter
Nov 3
New
Nov 10
First Quarter
Nov 17
Full
Nov 25
Last Quarter

Hourly Weather History & Observations

Time (EDT) Temp. Windchill Dew Point Humidity Pressure Visibility Wind Dir Wind Speed Gust Speed Precip Events Conditions
12:15 AM 37.4 °F 33.8 °F 28.8 °F 71% 30.00 in 10.0 mi West 4.6 mph - N/A   Overcast
12:30 AM 37.8 °F 34.2 °F 28.4 °F 69% 30.00 in 10.0 mi West 4.6 mph - N/A   Mostly Cloudy
12:50 AM 36.9 °F 34.3 °F 28.2 °F 71% 30.00 in 10.0 mi WNW 3.5 mph - N/A   Mostly Cloudy
1:11 AM 36.1 °F 33.5 °F 28.4 °F 73% 30.00 in 10.0 mi West 3.5 mph - N/A   Mostly Cloudy
1:31 AM 35.8 °F - 28.4 °F 75% 30.00 in 10.0 mi Calm Calm - N/A   Scattered Clouds
1:51 AM 34.2 °F 31.2 °F 27.9 °F 78% 30.00 in 10.0 mi SW 3.5 mph - N/A   Clear
2:11 AM 33.1 °F 30.0 °F 28.8 °F 84% 30.00 in 10.0 mi SSW 3.5 mph - N/A   Clear
2:31 AM 30.9 °F - 27.9 °F 88% 30.00 in 10.0 mi Calm Calm - N/A   Clear
2:51 AM 31.1 °F - 28.4 °F 90% 30.00 in 10.0 mi Calm Calm - N/A   Clear
3:11 AM 31.6 °F - 29.3 °F 91% 29.99 in 10.0 mi Calm Calm - N/A   Clear
3:31 AM 30.9 °F - 29.1 °F 93% 29.99 in 10.0 mi Calm Calm - N/A   Clear
3:51 AM 29.3 °F - 28.4 °F 96% 29.99 in 10.0 mi Calm Calm - N/A   Clear
4:11 AM 29.5 °F - 28.9 °F 98% 29.98 in 10.0 mi Calm Calm - N/A   Clear
4:32 AM 30.9 °F - 29.7 °F 95% 29.99 in 10.0 mi Calm Calm - N/A   Scattered Clouds
4:52 AM 31.1 °F - 29.1 °F 92% 29.99 in 10.0 mi Calm Calm - N/A   Mostly Cloudy
5:12 AM 30.2 °F - 29.5 °F 97% 29.99 in 10.0 mi Calm Calm - N/A   Overcast
5:32 AM 30.9 °F - 30.0 °F 96% 29.99 in 10.0 mi Calm Calm - N/A   Overcast
5:52 AM 30.9 °F - 30.2 °F 97% 29.99 in 10.0 mi Calm Calm - N/A   Overcast
6:12 AM 31.8 °F - 30.9 °F 96% 30.00 in 10.0 mi Calm Calm - N/A   Overcast
6:32 AM 32.0 °F - 31.1 °F 96% 29.99 in 10.0 mi Calm Calm - N/A   Overcast
6:52 AM 32.0 °F - 31.6 °F 99% 30.00 in 10.0 mi Calm Calm - N/A   Overcast
7:13 AM 32.2 °F - 32.0 °F 99% 29.99 in 10.0 mi Calm Calm - N/A   Overcast
7:33 AM 32.5 °F - 32.0 °F 98% 29.99 in 10.0 mi Calm Calm - N/A   Overcast
7:53 AM 33.3 °F - 32.4 °F 96% 30.00 in 10.0 mi Calm Calm - N/A   Overcast
8:13 AM 32.7 °F - 32.0 °F 97% 29.99 in 10.0 mi Calm Calm - N/A   Overcast
8:33 AM 32.9 °F - 32.0 °F 96% 30.00 in 10.0 mi Calm Calm - N/A   Overcast
8:53 AM 33.4 °F - 32.7 °F 97% 30.01 in 10.0 mi Calm Calm - N/A   Overcast
9:13 AM 34.7 °F 31.8 °F 32.4 °F 91% 30.01 in 10.0 mi SSE 3.5 mph - N/A   Overcast
9:33 AM 36.1 °F 33.5 °F 31.6 °F 84% 30.01 in 10.0 mi SSE 3.5 mph - N/A   Overcast
9:53 AM 37.4 °F 33.8 °F 31.3 °F 79% 30.01 in 10.0 mi SSE 4.6 mph - N/A   Overcast
10:13 AM 38.7 °F 36.3 °F 30.9 °F 74% 30.01 in 10.0 mi SSE 3.5 mph - N/A   Overcast
10:33 AM 39.2 °F 34.2 °F 31.3 °F 73% 30.01 in 10.0 mi South 6.9 mph - N/A   Overcast
10:53 AM 40.5 °F 35.8 °F 30.9 °F 69% 30.00 in 10.0 mi SSE 6.9 mph - N/A   Overcast
11:14 AM 42.1 °F 39.2 °F 31.5 °F 66% 30.00 in 10.0 mi SSE 4.6 mph - N/A   Overcast
11:34 AM 43.5 °F 38.9 °F 32.0 °F 64% 30.00 in 10.0 mi South 8.1 mph - N/A   Overcast
11:54 AM 45.3 °F 41.6 °F 32.5 °F 61% 30.00 in 10.0 mi South 6.9 mph - N/A   Overcast
12:14 PM 47.1 °F - 31.3 °F 54% 29.99 in 10.0 mi SSW 10.4 mph - N/A   Overcast
12:34 PM 47.3 °F - 29.7 °F 50% 29.99 in 10.0 mi SSW 12.7 mph 19.6 mph N/A   Overcast
12:54 PM 49.1 °F - 29.3 °F 46% 29.99 in 10.0 mi SW 15.0 mph 24.2 mph N/A   Mostly Cloudy
1:14 PM 49.3 °F - 30.0 °F 48% 29.98 in 10.0 mi SW 10.4 mph 20.7 mph N/A   Mostly Cloudy
1:34 PM 49.5 °F - 29.3 °F 46% 29.97 in 10.0 mi SW 13.8 mph 18.4 mph N/A   Mostly Cloudy
1:55 PM 49.8 °F - 29.3 °F 45% 29.96 in 10.0 mi SSW 15.0 mph 20.7 mph N/A   Scattered Clouds
2:15 PM 48.4 °F - 29.5 °F 48% 29.95 in 10.0 mi SW 13.8 mph 19.6 mph N/A   Scattered Clouds
2:35 PM 49.5 °F - 30.0 °F 47% 29.95 in 10.0 mi SW 15.0 mph 20.7 mph N/A   Scattered Clouds
2:55 PM 49.8 °F - 29.7 °F 46% 29.95 in 10.0 mi SSW 11.5 mph 19.6 mph N/A   Mostly Cloudy
3:15 PM 49.3 °F - 29.7 °F 47% 29.94 in 10.0 mi SW 13.8 mph 21.9 mph N/A   Scattered Clouds
3:35 PM 50.0 °F - 30.9 °F 48% 29.94 in 10.0 mi SSW 15.0 mph 20.7 mph N/A   Scattered Clouds
3:55 PM 50.0 °F - 31.1 °F 48% 29.93 in 10.0 mi SW 10.4 mph 19.6 mph N/A   Scattered Clouds
4:10 PM 49.1 °F - 30.4 °F 49% 29.94 in 10.0 mi SSW 15.0 mph 21.9 mph N/A   Scattered Clouds
4:30 PM 49.5 °F - 31.3 °F 50% 29.94 in 10.0 mi SW 15.0 mph 21.9 mph N/A   Clear
4:51 PM 48.9 °F - 31.3 °F 51% 29.93 in 10.0 mi SSW 17.3 mph 24.2 mph N/A   Clear
5:11 PM 48.4 °F - 31.6 °F 52% 29.93 in 10.0 mi SSW 13.8 mph 26.5 mph N/A   Clear
5:31 PM 48.2 °F - 32.0 °F 54% 29.93 in 10.0 mi SSW 19.6 mph 24.2 mph N/A   Clear
5:51 PM 47.5 °F - 32.0 °F 55% 29.93 in 10.0 mi SSW 11.5 mph 19.6 mph N/A   Clear
6:11 PM 46.6 °F - 32.0 °F 57% 29.93 in 10.0 mi SSW 11.5 mph 17.3 mph N/A   Clear
6:31 PM 46.0 °F 41.4 °F 32.2 °F 58% 29.93 in 10.0 mi SSW 9.2 mph - N/A   Clear
6:51 PM 45.3 °F 40.6 °F 32.0 °F 60% 29.93 in 10.0 mi South 9.2 mph - N/A   Clear
7:11 PM 44.1 °F 40.1 °F 32.2 °F 63% 29.93 in 10.0 mi South 6.9 mph - N/A   Clear
7:31 PM 42.3 °F 37.9 °F 32.2 °F 67% 29.93 in 10.0 mi South 6.9 mph - N/A   Clear
7:52 PM 40.3 °F 35.5 °F 32.5 °F 74% 29.93 in 10.0 mi South 6.9 mph - N/A   Clear
8:12 PM 40.1 °F 35.3 °F 32.9 °F 75% 29.93 in 10.0 mi South 6.9 mph - N/A   Clear
8:32 PM 39.2 °F 34.2 °F 33.1 °F 79% 29.93 in 10.0 mi South 6.9 mph - N/A   Clear
8:52 PM 39.7 °F 37.6 °F 33.6 °F 79% 29.94 in 10.0 mi SSW 3.5 mph - N/A   Clear
9:12 PM 40.1 °F - 32.9 °F 75% 29.95 in 10.0 mi Calm Calm - N/A   Mostly Cloudy
9:32 PM 39.6 °F 36.3 °F 33.3 °F 78% 29.96 in 10.0 mi SSW 4.6 mph - N/A   Mostly Cloudy
9:52 PM 39.6 °F 37.4 °F 34.0 °F 80% 29.97 in 10.0 mi SSW 3.5 mph - N/A   Scattered Clouds
10:12 PM 39.4 °F 37.2 °F 32.9 °F 78% 29.98 in 10.0 mi SSW 3.5 mph - N/A   Scattered Clouds
10:33 PM 39.0 °F 36.8 °F 33.8 °F 82% 29.98 in 10.0 mi SSW 3.5 mph - N/A   Clear
10:53 PM 40.8 °F 38.8 °F 33.6 °F 76% 29.99 in 10.0 mi SW 3.5 mph - N/A   Clear
11:13 PM 41.2 °F 39.2 °F 33.8 °F 75% 30.00 in 10.0 mi SW 3.5 mph - N/A   Clear
11:33 PM 41.5 °F 39.6 °F 32.9 °F 71% 30.00 in 10.0 mi SW 3.5 mph - N/A   Clear
11:53 PM 42.3 °F 40.5 °F 32.5 °F 68% 30.00 in 10.0 mi SW 3.5 mph - N/A   Clear